This is the latest recevied weather packets stored in our database for station/object KF0ZH. If no packets are shown the sender has not sent any weather packets the latest 10 day(s).
| Time | Temp. | Humidity | Pressure | Rain* | Wind** | Luminosity | Snow |
|---|---|---|---|---|---|---|---|
| 1778072517 | 3.33° C | 73% | 1016.1 hPa | 0 mm | 2.24 m/s, 329° | - | - |
| 1778072217 | 3.33° C | 77% | 1016 hPa | 0 mm | 0 m/s | - | - |
| 1778071924 | 3.33° C | 79% | 1015.9 hPa | 0 mm | 0 m/s | - | - |
| 1778071620 | 2.78° C | 80% | 1015.9 hPa | 0 mm | 0 m/s | - | - |
| 1778071016 | 2.78° C | 83% | 1015.8 hPa | 0 mm | 0 m/s | - | - |
| 1778070716 | 2.22° C | 84% | 1015.8 hPa | 0 mm | 0 m/s | - | - |
| 1778070416 | 2.22° C | 85% | 1015.7 hPa | 0 mm | 0 m/s | - | - |
| 1778070185 | 2.22° C | 86% | 1015.6 hPa | 0 mm | 0 m/s | - | - |
| 1778070117 | 2.22° C | 86% | 1015.6 hPa | 0 mm | 0 m/s | - | - |
| 1778069217 | 1.67° C | 87% | 1015.3 hPa | 0 mm | 0 m/s | - | - |
| 1778068918 | 1.11° C | 88% | 1015.3 hPa | 0 mm | 0 m/s | - | - |
| 1778068617 | 0.56° C | 89% | 1015.2 hPa | 0 mm | 0 m/s | - | - |
| 1778068324 | 0.56° C | 90% | 1015.1 hPa | 0 mm | 0 m/s | - | - |
| 1778067716 | 0° C | 91% | 1014.8 hPa | 0 mm | 0 m/s | - | - |
| 1778067417 | 0° C | 91% | 1014.8 hPa | 0 mm | 0 m/s | - | - |
| 1778067116 | 0° C | 91% | 1014.7 hPa | 0 mm | 0 m/s | - | - |
| 1778066816 | -0.56° C | 91% | 1014.6 hPa | 0 mm | 0 m/s | - | - |
| 1778066517 | -0.56° C | 91% | 1014.6 hPa | 0 mm | 0 m/s | - | - |
| 1778065616 | -0.56° C | 90% | 1014.4 hPa | 0 mm | 0 m/s | - | - |
| 1778065016 | -0.56° C | 90% | 1014.6 hPa | 0 mm | 0 m/s | - | - |
| 1778064717 | -0.56° C | 90% | 1014.7 hPa | 0 mm | 0 m/s | - | - |
| 1778064416 | -0.56° C | 91% | 1014.7 hPa | 0 mm | 0 m/s | - | - |
| 1778064116 | -0.56° C | 91% | 1014.7 hPa | 0 mm | 0 m/s | - | - |
| 1778063816 | -0.56° C | 91% | 1014.7 hPa | 0 mm | 0 m/s | - | - |
| 1778063217 | -0.56° C | 91% | 1014.6 hPa | 0 mm | 0 m/s | - | - |
* Rain latest hour (hover to see other rain measurements)
** Current wind speed in m/s (hover to see current wind gust speed)